TimeEDT,TemperatureF,Dew PointF,Humidity,Sea Level PressureIn,VisibilityMPH,Wind Direction,Wind SpeedMPH,Gust SpeedMPH,PrecipitationIn,Events,Conditions,WindDirDegrees,DateUTC
12:53 AM,37.0,18.0,46,30.22,10.0,SE,9.2,-,N/A,,Clear,140,2013-03-10 05:53:00
1:53 AM,37.9,17.1,43,30.20,10.0,SE,6.9,-,N/A,,Clear,130,2013-03-10 06:53:00
3:53 AM,42.1,17.1,37,30.19,10.0,SSE,6.9,-,N/A,,Clear,150,2013-03-10 07:53:00
4:53 AM,42.1,18.0,38,30.17,10.0,SE,9.2,-,N/A,,Overcast,140,2013-03-10 08:53:00
5:53 AM,43.0,17.1,35,30.16,10.0,South,8.1,-,N/A,,Mostly Cloudy,170,2013-03-10 09:53:00
6:53 AM,43.0,17.1,35,30.15,10.0,SSE,10.4,-,N/A,,Scattered Clouds,150,2013-03-10 10:53:00
8:53 AM,44.1,17.1,34,30.17,10.0,SSE,10.4,-,N/A,,Clear,150,2013-03-10 12:53:00
9:53 AM,46.0,18.0,33,30.19,10.0,Variable,6.9,-,N/A,,Clear,0,2013-03-10 13:53:00
10:53 AM,48.9,18.0,29,30.19,10.0,South,10.4,-,N/A,,Scattered Clouds,180,2013-03-10 14:53:00
11:53 AM,50.0,18.0,28,30.17,10.0,South,9.2,-,N/A,,Clear,170,2013-03-10 15:53:00
12:53 PM,52.0,19.0,27,30.15,10.0,Variable,6.9,-,N/A,,Mostly Cloudy,0,2013-03-10 16:53:00
1:53 PM,55.0,19.9,25,30.12,10.0,South,13.8,18.4,N/A,,Clear,170,2013-03-10 17:53:00
2:53 PM,55.0,19.9,25,30.09,10.0,South,9.2,-,N/A,,Clear,180,2013-03-10 18:53:00
3:53 PM,57.9,21.0,24,30.07,10.0,South,9.2,17.3,N/A,,Clear,180,2013-03-10 19:53:00
4:53 PM,57.9,21.0,24,30.07,10.0,SSE,10.4,20.7,N/A,,Clear,150,2013-03-10 20:53:00
5:53 PM,55.9,23.0,28,30.05,10.0,SSE,12.7,20.7,N/A,,Clear,150,2013-03-10 21:53:00
6:53 PM,54.0,23.0,30,30.05,10.0,SSE,11.5,17.3,N/A,,Clear,150,2013-03-10 22:53:00
7:53 PM,52.0,23.0,32,30.09,10.0,South,8.1,17.3,N/A,,Clear,170,2013-03-10 23:53:00
8:53 PM,50.0,24.1,36,30.09,10.0,SSE,6.9,-,N/A,,Clear,160,2013-03-11 00:53:00
10:53 PM,48.9,24.1,38,30.06,10.0,SSE,11.5,-,N/A,,Clear,150,2013-03-11 02:53:00
11:53 PM,48.9,24.1,38,30.06,10.0,SSE,8.1,-,N/A,,Clear,150,2013-03-11 03:53:00
12:53 AM,48.0,24.1,39,30.05,10.0,SSE,10.4,-,N/A,,Clear,150,2013-03-11 04:53:00